This demonstration page uses our WeatherBlox Daily Observations layout. Learn more.

Left ArrowRight Arrow

Hourly Observations for July 19, 2021

Temp ( °F °C ) Dew Point ( °F °C ) Humidity (%) Winds ( mph kmh ) Pressure ( in mb ) Visibility ( mi km ) Precip ( " mm )
12:56 am 00:56 Clear 67 19.4 65 18.3 93 93 SE 8 13 30.19 1022 10 16 0.00 0.00
1:56 am 01:56 Cloudy 67 19.4 64 17.8 91 91 SE 5 7 30.19 1022 10 16 0.00 0.00
2:56 am 02:56 Mostly Clear 66 18.9 64 17.8 93 93 SE 3 6 30.19 1022 10 16 0.00 0.00
3:56 am 03:56 Clear 64 17.8 63 17.2 96 96 Calm 30.19 1023 10 16 0.00 0.00
4:56 am 04:56 Partly Cloudy 63 17.2 62 16.7 97 97 Calm 30.20 1023 10 16 0.00 0.00
5:56 am 05:56 Mostly Cloudy 64 17.8 63 17.2 96 96 Calm 30.20 1023 8 13 0.00 0.00
6:56 am 06:56 Mostly Cloudy with Mist and Fog 63 17.2 62 16.7 97 97 E 6 9 30.20 1023 6 10 0.00 0.00
7:13 am 07:13 Partly Cloudy with Mist and Fog 63 17 63 17 100 100 E 5 7 30.19 1022 5 8 0.00 0.00
7:56 am 07:56 Mostly Cloudy 66 18.9 64 17.8 93 93 Calm 30.21 1023 9 14 0.00 0.00
8:56 am 08:56 Mostly Sunny 70 21.1 65 18.3 84 84 SE 8 13 30.21 1023 10 16 0.00 0.00
9:56 am 09:56 Mostly Cloudy 72 22.2 65 18.3 79 79 SE 9 15 30.22 1023 10 16 0.00 0.00
10:56 am 10:56 Sunny 74 23.3 65 18.3 74 74 SSE 8 13 30.21 1023 10 16 0.00 0.00
11:56 am 11:56 Sunny 76 24.4 65 18.3 69 69 SSE 8 13 30.21 1023 10 16 0.00 0.00
12:56 pm 12:56 Partly Cloudy 78 25.6 67 19.4 69 69 SE 8 13 30.20 1023 10 16 0.00 0.00
1:56 pm 13:56 Mostly Sunny 78 25.6 65 18.3 64 64 ESE 6 9 30.19 1022 10 16 0.00 0.00
2:56 pm 14:56 Partly Cloudy 79 26.1 66 18.9 65 65 ESE 8 13 30.18 1022 10 16 0.00 0.00
3:56 pm 15:56 Sunny 80 26.7 66 18.9 62 62 SSE 8 13 30.18 1022 10 16 0.00 0.00
4:56 pm 16:56 Sunny 80 26.7 64 17.8 58 58 E 8 13 30.17 1022 10 16 0.00 0.00
5:56 pm 17:56 Sunny 80 26.7 65 18.3 60 60 ESE 12 19 30.17 1022 10 16 0.00 0.00
6:56 pm 18:56 Sunny 78 25.6 64 17.8 62 62 ESE 10 17 30.16 1022 10 16 0.00 0.00
7:56 pm 19:56 Sunny 76 24.4 65 18.3 69 69 ESE 8 13 30.17 1022 10 16 0.00 0.00
8:56 pm 20:56 Sunny 71 21.7 65 18.3 81 81 E 7 11 30.19 1022 9 14 0.00 0.00
9:56 pm 21:56 Clear 67 19.4 63 17.2 87 87 E 6 9 30.19 1022 10 16 0.00 0.00
10:56 pm 22:56 Clear 66 18.9 62 16.7 87 87 ESE 7 11 30.19 1022 10 16 0.00 0.00
11:56 pm 23:56 Clear 65 18.3 61 16.1 87 87 SE 5 7 30.18 1022 10 16 0.00 0.00

Powered by AerisWeather